Location: Łódź
(51.7951°N, 19.4477°E)
Time: 21:32:46
(UTC+01:00)

ISS - Pass Details

Date: 02 February 2019
Orbit: 403 x 411 km, 51.6° (Epoch: 22 February)

Event Time Altitude Azimuth Distance (km) Brightness Sun altitude
Rises 18:04:14 0° 276° (W) 2,336 1.7 -14.4°
Reaches altitude 10° 18:06:19 10° 275° (W) 1,476 0.3 -14.7°
Maximum altitude 18:09:38 84° 189° (S) 418 -3.8 -15.2°
Enters shadow 18:10:55 35° 102° (ESE) 690 -3.2 -15.4°
